[[[{"header":{"parameterUnit":"kt","parameterCategory":2,"dx":1,"dy":1,"la1":30.253999710083008,"la2":30.299108505249023,"lo1":-89.0895004272461,"lo2":-89.04439544677734,"nx":28,"ny":28,"refTime":"2022-09-26T21:00:00:Z","depth":0,"parameterNumber":1,"parameterNumberName":"U-component_of_WINDS"},"data":[-5.7269,-5.7371,-5.7351,-5.7458,-5.7458,-5.7527,-5.7545,-5.7567,-5.7578,-5.7657,-5.7699,-5.7688,-5.7691,-5.7736,-5.7779,-5.7773,-5.7795,-5.7845,-5.783,-5.7622,-5.7592,-5.7563,-5.7539,-5.7849,-5.785,-5.805,-5.8052,-5.8053,-5.7118,-5.712,-5.717,-5.7205,-5.7248,-5.7187,-5.721,-5.725,-5.7313,-5.7328,-5.7367,-5.7435,-5.7486,-5.7471,-5.7516,-5.7562,-5.7537,-5.7576,-5.7574,-5.7576,-5.7352,-5.7326,-5.7596,-5.7596,-5.7596,-5.7596,-5.7596,-5.7596,-5.6838,-5.69,-5.691,-5.6964,-5.6976,-5.7,-5.7055,-5.704,-5.7089,-5.7134,-5.7099,-5.717,-5.718,-5.7224,-5.7233,-5.7287,-5.724,-5.7277,-5.7287,-5.7298,-5.7314,-5.7031,-5.7293,-5.7292,-5.7291,-5.729,-5.729,0,-5.6628,-5.6608,-5.6654,-5.6696,-5.6734,-5.6763,-5.6787,-5.682,-5.6767,-5.6809,-5.6868,-5.6899,-5.6958,-5.7012,-5.7048,-5.705,-5.6993,-5.6983,-5.7009,-5.703,-5.7044,-5.7041,-5.6679,-5.6977,-5.6974,-5.6972,-5.6971,-5.6969,-5.6348,-5.6421,-5.6421,-5.6456,-5.6464,-5.6522,-5.6552,-5.65,-5.6535,-5.6555,-5.6612,-5.6663,-5.6703,-5.68,-5.6782,-5.6826,-5.6799,-5.6916,-5.6806,-5.6821,-5.6805,-5.6803,-5.6811,-5.694,-5.6944,-5.6947,-5.6949,0,-5.6192,-5.6158,-5.6265,-5.6258,-5.6258,-5.6337,-5.633,-5.6389,-5.6368,-5.6446,-5.646,-5.6429,-5.6487,-5.6449,-5.6508,-5.6487,-5.6618,-5.6588,-5.6614,-5.6608,-5.6711,-5.6703,-5.7045,-5.7088,-5.6762,-5.6765,-5.6768,0,-5.5941,-5.6039,-5.5984,-5.6048,-5.6154,-5.61,-5.6207,-5.62,-5.6207,-5.6268,-5.6195,-5.6254,-5.6196,-5.6249,-5.6218,-5.6317,-5.6327,-5.6318,-5.631,-5.6327,-5.6329,-5.6348,-5.6334,-5.6283,-5.6281,-5.628,-5.6278,0,-5.5704,-5.5788,-5.5891,-5.5905,-5.5906,-5.5956,-5.5959,-5.5967,-5.5997,-5.6029,-5.6048,-5.6089,-5.6112,-5.6145,-5.6106,-5.6033,-5.6225,-5.6117,-5.6216,-5.6218,-5.6264,-5.6263,-5.6571,-5.6276,-5.6276,-5.6275,-5.6274,0,-5.5498,-5.5532,-5.5686,-5.5685,-5.571,-5.5777,-5.5814,-5.5863,-5.5877,-5.5862,-5.5886,-5.5834,-5.5916,-5.5812,-5.5925,-5.5841,-5.5868,-5.5866,-5.5872,-5.5881,-5.5766,-5.595,-5.6245,-5.6276,-5.5884,-5.5881,-5.5878,0,-5.5237,-5.5383,-5.5337,-5.5484,-5.5546,-5.5461,-5.5534,-5.5549,-5.5535,-5.5585,-5.5568,-5.5626,-5.554,-5.5553,-5.5613,-5.5599,-5.5707,-5.5583,-5.5659,-5.5662,-5.5661,-5.5931,-5.5986,-5.6183,-5.5836,-5.584,-5.5843,0,-5.5032,-5.5033,-5.5063,-5.5077,-5.5087,-5.5138,-5.5222,-5.5267,-5.5304,-5.5326,-5.5397,-5.5474,-5.5414,-5.5436,-5.5398,-5.5463,-5.5632,-5.5389,-5.5389,-5.5437,-5.581,-5.5863,-5.5896,-5.5592,-5.5597,-5.5601,-5.581,0,-5.4733,-5.4801,-5.4877,-5.491,-5.4943,-5.5032,-5.4994,-5.5033,-5.4993,-5.4977,-5.5077,-5.5079,-5.5125,-5.5152,-5.5113,-5.5273,-5.5241,-5.5176,-5.5074,-5.525,-5.5318,-5.5346,-5.4976,-5.4973,-5.497,-5.4968,0,0,-5.4494,-5.459,-5.4538,-5.4618,-5.4643,-5.4555,-5.4653,-5.4667,-5.4698,-5.4718,-5.466,-5.4772,-5.4777,-5.4903,-5.4955,-5.4972,-5.4998,-5.4938,-5.5166,-5.5188,-5.5209,-5.5282,-5.5311,-5.4963,-5.4962,-5.4961,-5.496,0,-5.4378,-5.4384,-5.4482,-5.4494,-5.451,-5.4487,-5.4511,-5.4511,-5.4505,-5.4603,-5.4529,-5.4584,-5.4675,-5.4691,-5.471,-5.4921,-5.4864,-5.4937,-5.5065,-5.514,-5.5166,-5.5188,-5.5266,-5.5294,-5.4953,-5.4954,-5.4954,0,-5.4171,-5.4172,-5.4214,-5.4266,-5.4276,-5.4342,-5.4225,-5.4299,-5.4347,-5.4247,-5.4346,-5.4342,-5.4358,-5.4481,-5.4535,-5.4485,-5.4744,-5.4654,-5.467,-5.4676,-5.4747,-5.4778,-5.4805,-5.4441,-5.4439,-5.4438,0,0,-5.4076,-5.4138,-5.4123,-5.4239,-5.425,-5.4218,-5.4248,-5.4212,-5.4229,-5.4236,-5.423,-5.4249,-5.43,-5.4336,-5.4383,-5.4524,-5.4524,-5.4592,-5.4617,-5.4637,-5.4654,-5.4729,-5.476,-5.4432,-5.4432,-5.4431,0,0,-5.4031,-5.4018,-5.3975,-5.4105,-5.4123,-5.4116,-5.4188,-5.4135,-5.4174,-5.4159,-5.4102,-5.4104,-5.4219,-5.4218,-5.4141,-5.4347,-5.4247,-5.4264,-5.4344,-5.4374,-5.4398,-5.4397,-5.4023,0,0,0,0,0,-5.3893,-5.4019,-5.3981,-5.3996,-5.4062,-5.4137,-5.4145,-5.4101,-5.4031,-5.4089,-5.4076,-5.4011,-5.4165,-5.4095,-5.4111,-5.4199,-5.4353,-5.4367,-5.438,-5.4516,-5.4547,-5.4574,0,0,0,0,0,0,-5.3899,-5.3919,-5.3977,-5.3976,-5.399,-5.4132,-5.4004,-5.3995,-5.4023,-5.401,-5.4016,-5.4011,-5.3975,-5.4083,-5.4099,-5.4183,-5.4017,-5.4358,-5.437,-5.4381,-5.4526,-5.4552,-5.4575,0,0,0,0,0,-5.3903,-5.3919,-5.4037,-5.3974,-5.3986,-5.3957,-5.3999,-5.3991,-5.4012,-5.3991,-5.3985,-5.3976,-5.3978,-5.3988,-5.4092,-5.4177,-5.4006,-5.4012,-5.4366,-5.4375,-5.4384,-5.4539,0,0,0,0,0,0,-5.3907,-5.3912,-5.4038,-5.404,-5.3923,-5.3948,-5.3951,-5.3987,-5.399,-5.3985,-5.3948,-5.3937,-5.3983,-5.3989,-5.3998,-5.4178,-5.3997,-5.4003,-5.4007,-5.4373,-5.438,-5.4387,0,0,0,0,0,0,-5.3903,-5.3915,-5.4039,-5.3977,-5.3972,-5.3941,-5.3943,-5.4024,-5.3991,-5.3946,-5.3937,-5.3943,-5.397,-5.3991,-5.3997,-5.4126,-5.399,-5.3996,-5.4,-5.4003,-5.4379,-5.4385,0,0,0,0,0,0,-5.3907,-5.3917,-5.3976,-5.3973,-5.3967,-5.3988,-5.4011,-5.4081,-5.3939,-5.3947,-5.3925,-5.3918,-5.3974,-5.3978,-5.3997,-5.4124,-5.4125,-5.399,-5.3994,-5.3997,-5.3999,0,0,0,0,0,0,0,-5.391,-5.3856,-5.4026,-5.3968,-5.3964,-5.406,-5.406,-5.4061,-5.3937,-5.3932,-5.3926,-5.3921,-5.3957,-5.3963,-5.3969,-5.4122,0,0,-5.399,-5.3992,0,0,0,0,0,0,0,0,-5.3851,-5.3855,-5.4026,-5.4026,-5.4026,-5.406,-5.406,-5.4061,-5.3937,-5.3932,-5.3927,-5.3923,-5.3958,-5.3963,-5.3969,0,0,0,0,0,0,0,0,0,0,0,0,0,0,0,-5.4026,-5.4026,0,-5.406,-5.406,-5.4061,-5.3936,-5.3932,-5.3928,-5.3925,-5.396,-5.3964,-5.3968,0,0,0,0,0,0,0,0,0,0,0,0,0,0,0,0,0,0,0,0,0,0,0,0,0,0,0,0,0,0,0,0,0,0,0,0,0,0,0,0,0,0,0,0,0,0,0,0,0,0,0,0,0,0,0,0,0,0,0,0,0,0,0,0,0,0,0,0,0]}],[{"header":{"parameterUnit":"kt","parameterCategory":2,"dx":1,"dy":1,"la1":30.253999710083008,"la2":30.299108505249023,"lo1":-89.0895004272461,"lo2":-89.04439544677734,"nx":28,"ny":28,"refTime":"2022-09-26T21:00:00:Z","depth":0,"parameterNumber":2,"parameterNumberName":"V-component_of_WINDS"},"data":[-12.8516,-12.8688,-12.868,-12.887,-12.8894,-12.9021,-12.9063,-12.9115,-12.9154,-12.9301,-12.9383,-12.9387,-12.9418,-12.951,-12.9596,-12.9595,-12.9632,-12.9701,-12.9688,-12.9393,-12.9352,-12.9312,-12.9272,-12.9709,-12.971,-12.9996,-12.9998,-13.0,-12.8302,-12.8329,-12.8427,-12.8516,-12.8599,-12.8528,-12.8591,-12.8664,-12.8779,-12.8826,-12.8906,-12.9033,-12.9131,-12.9137,-12.9228,-12.9304,-12.9274,-12.9329,-12.9324,-12.933,-12.9014,-12.8972,-12.9352,-12.9352,-12.9352,-12.9352,-12.9352,-12.9352,-12.7911,-12.8014,-12.8063,-12.8169,-12.821,-12.8269,-12.8364,-12.8368,-12.8461,-12.8558,-12.8524,-12.8651,-12.8694,-12.8795,-12.8825,-12.8922,-12.8857,-12.8913,-12.8927,-12.8943,-12.8962,-12.8554,-12.8936,-12.8934,-12.8933,-12.8932,-12.8932,0,-12.7622,-12.7608,-12.77,-12.7792,-12.7867,-12.7935,-12.7995,-12.8053,-12.8013,-12.8091,-12.8202,-12.8263,-12.8382,-12.8483,-12.8564,-12.8582,-12.8513,-12.8503,-12.8542,-12.8562,-12.857,-12.8569,-12.8057,-12.8492,-12.8488,-12.8485,-12.8483,-12.8482,-12.7227,-12.7348,-12.7393,-12.7459,-12.749,-12.7597,-12.7658,-12.7613,-12.7679,-12.7743,-12.7834,-12.7935,-12.8013,-12.8189,-12.8187,-12.8274,-12.8241,-12.8409,-12.8254,-12.8268,-12.8245,-12.824,-12.8252,-12.8441,-12.8446,-12.8451,-12.8454,0,-12.7006,-12.6989,-12.7172,-12.7203,-12.7214,-12.7342,-12.7366,-12.7464,-12.7456,-12.759,-12.7618,-12.7604,-12.7711,-12.7682,-12.7797,-12.7778,-12.7984,-12.7949,-12.797,-12.7962,-12.8111,-12.8098,-12.8595,-12.8658,-12.8203,-12.8208,-12.8211,0,-12.6664,-12.6823,-12.6788,-12.6895,-12.7069,-12.7021,-12.7194,-12.7204,-12.724,-12.7345,-12.7262,-12.7362,-12.7308,-12.7403,-12.7375,-12.7537,-12.7558,-12.7553,-12.7545,-12.7562,-12.7563,-12.7595,-12.7575,-12.7517,-12.7515,-12.7512,-12.751,0,-12.6321,-12.6487,-12.6661,-12.6695,-12.6743,-12.6824,-12.6847,-12.6886,-12.6945,-12.7016,-12.7053,-12.7138,-12.7185,-12.7251,-12.7215,-12.7111,-12.7412,-12.7261,-12.7408,-12.7409,-12.7477,-12.7473,-12.7921,-12.7507,-12.7507,-12.7506,-12.7505,0,-12.6041,-12.6118,-12.6372,-12.6409,-12.6454,-12.6567,-12.665,-12.6739,-12.6787,-12.6777,-12.6832,-12.6772,-12.6911,-12.6764,-12.6954,-12.6829,-12.6879,-12.6886,-12.6896,-12.6908,-12.6744,-12.7002,-12.743,-12.7474,-12.6917,-12.6912,-12.6908,0,-12.5655,-12.5905,-12.5866,-12.6107,-12.6219,-12.612,-12.6243,-12.6288,-12.6286,-12.6377,-12.6372,-12.6477,-12.636,-12.6389,-12.6486,-12.6485,-12.6648,-12.6462,-12.6593,-12.6598,-12.6586,-12.6979,-12.7051,-12.734,-12.6845,-12.6851,-12.6856,0,-12.5352,-12.541,-12.5456,-12.5493,-12.5547,-12.5638,-12.578,-12.5874,-12.5938,-12.5996,-12.6113,-12.6257,-12.6175,-12.6222,-12.6182,-12.6286,-12.6536,-12.6183,-12.6183,-12.6249,-12.681,-12.6878,-12.6927,-12.6486,-12.6493,-12.6499,-12.6806,0,-12.4937,-12.5059,-12.5181,-12.5266,-12.5333,-12.5481,-12.5453,-12.5525,-12.5481,-12.5475,-12.5645,-12.5671,-12.5764,-12.581,-12.5766,-12.6013,-12.5967,-12.5878,-12.5733,-12.599,-12.6091,-12.6131,-12.5586,-12.5581,-12.5578,-12.5574,0,0,-12.4572,-12.4746,-12.4698,-12.4835,-12.4888,-12.4782,-12.4943,-12.4981,-12.5062,-12.51,-12.5018,-12.5226,-12.5251,-12.546,-12.5538,-12.5574,-12.5616,-12.5526,-12.5867,-12.59,-12.5931,-12.6039,-12.6082,-12.5568,-12.5566,-12.5565,-12.5564,0,-12.4414,-12.4447,-12.4608,-12.4647,-12.4702,-12.4688,-12.4727,-12.4761,-12.4765,-12.4931,-12.4839,-12.4936,-12.5103,-12.5142,-12.5183,-12.55,-12.5425,-12.553,-12.5713,-12.5831,-12.5868,-12.5902,-12.6016,-12.6057,-12.5555,-12.5555,-12.5555,0,-12.4113,-12.4141,-12.4215,-12.4331,-12.4366,-12.4482,-12.4323,-12.4452,-12.4537,-12.441,-12.4577,-12.4587,-12.4635,-12.4836,-12.4925,-12.4853,-12.5253,-12.512,-12.5143,-12.5152,-12.5265,-12.531,-12.5351,-12.4817,-12.4814,-12.4812,0,0,-12.398,-12.4093,-12.4107,-12.4295,-12.4324,-12.4305,-12.4363,-12.4325,-12.4373,-12.4392,-12.4404,-12.4451,-12.4547,-12.4611,-12.4699,-12.4924,-12.493,-12.5031,-12.5065,-12.5094,-12.5119,-12.5239,-12.5284,-12.4803,-12.4803,-12.4802,0,0,-12.3916,-12.3941,-12.3889,-12.4104,-12.4154,-12.4178,-12.4293,-12.4228,-12.4305,-12.4285,-12.4223,-12.4233,-12.442,-12.4433,-12.4314,-12.4647,-12.4503,-12.4531,-12.4632,-12.4675,-12.471,-12.4703,-12.4153,0,0,0,0,0,-12.3741,-12.3938,-12.3891,-12.3922,-12.4067,-12.4205,-12.4223,-12.4179,-12.4079,-12.4171,-12.417,-12.4084,-12.4356,-12.425,-12.4281,-12.4414,-12.4685,-12.4706,-12.4726,-12.4908,-12.4954,-12.4993,0,0,0,0,0,0,-12.3753,-12.3792,-12.3885,-12.3919,-12.3951,-12.4197,-12.4019,-12.4012,-12.4068,-12.4049,-12.4088,-12.4086,-12.4048,-12.4231,-12.4259,-12.4387,-12.4143,-12.4693,-12.4711,-12.4727,-12.4924,-12.4961,-12.4994,0,0,0,0,0,-12.3762,-12.3794,-12.4038,-12.3915,-12.3943,-12.3932,-12.4011,-12.4004,-12.4046,-12.4045,-12.404,-12.4008,-12.4053,-12.4074,-12.4248,-12.4375,-12.4123,-12.4134,-12.4705,-12.4719,-12.4731,-12.4942,0,0,0,0,0,0,-12.3769,-12.3787,-12.4043,-12.4049,-12.3838,-12.3917,-12.3928,-12.3997,-12.4036,-12.4035,-12.3961,-12.3946,-12.4059,-12.4074,-12.4091,-12.4374,-12.4107,-12.4118,-12.4125,-12.4715,-12.4726,-12.4736,0,0,0,0,0,0,-12.377,-12.3794,-12.4046,-12.3951,-12.3946,-12.3904,-12.3914,-12.4053,-12.4038,-12.395,-12.3938,-12.3954,-12.4033,-12.4075,-12.4088,-12.4308,-12.4095,-12.4105,-12.4112,-12.4117,-12.4724,-12.4733,0,0,0,0,0,0,-12.3779,-12.3799,-12.3949,-12.3945,-12.3941,-12.4012,-12.4026,-12.4176,-12.396,-12.3949,-12.3939,-12.3929,-12.4037,-12.4048,-12.4086,-12.4302,-12.4306,-12.4095,-12.4102,-12.4107,-12.4111,0,0,0,0,0,0,0,-12.3786,-12.3661,-12.4004,-12.3941,-12.3936,-12.4111,-12.4113,-12.4115,-12.3958,-12.395,-12.3941,-12.3934,-12.4035,-12.4046,-12.4058,-12.4297,0,0,-12.4094,-12.4099,0,0,0,0,0,0,0,0,-12.3651,-12.3659,-12.4004,-12.4005,-12.4007,-12.4112,-12.4113,-12.4115,-12.3957,-12.395,-12.3943,-12.3937,-12.4038,-12.4047,-12.4057,0,0,0,0,0,0,0,0,0,0,0,0,0,0,0,-12.4004,-12.4005,0,-12.4112,-12.4113,-12.4114,-12.3956,-12.395,-12.3945,-12.3939,-12.4041,-12.4048,-12.4056,0,0,0,0,0,0,0,0,0,0,0,0,0,0,0,0,0,0,0,0,0,0,0,0,0,0,0,0,0,0,0,0,0,0,0,0,0,0,0,0,0,0,0,0,0,0,0,0,0,0,0,0,0,0,0,0,0,0,0,0,0,0,0,0,0,0,0,0,0]}]]]